LiveATC.Net - Listen to live air traffic control over the Internet!


ICAO: MMAN  IATA: NTR   Airport: Aeropuerto Internacional del Norte
City: Monterrey
Country: Mexico   Continent: North America
MMAN METAR Weather: MMAN 170541Z 15005KT 7SM SKC 22/17 A2966 RMK SLP/// 5//// 9// HZY
MMAN Flight Activity (FlightAware)

MMAN Tower
Feed Status: DOWN
Last heard on: 2019-02-01 19:59:02 (15 days 16 hours 52 minutes ago)
MMAN Tower Audio Archives
FacilityFrequency
Monterrey Tower118.600

NOTICE

Unauthorized use prohibited. See LiveATC.net Terms of Service


Find LiveATC Audio Streams


Airport/ARTCC Code

Frequency Search
(e.g., 124.400, 128.75)
Site-wide search
 


Browse LiveATC Feeds
Top 50 LiveATC Feeds
LiveATC Feed Map
Bad Weather Areas

LiveATC FAQ
Offer LiveATC feed
Contact LiveATC.net
Press Inquiries

LiveATC on iPhone
LiveATC on Android

Windows Phone
Windows 8/10

LiveATC Mobile
(Mobile browser)

ATC Audio Archives
Interesting Recordings

LiveATC Forums


Home Page
About LiveATC.net
Make a Donation
Terms of Use
Privacy Policy

Canadian Air Freqs

AIRMETs/SIGMETs

FAA Airport Status
Nat'l Airspace Status
Arrival Demand Charts


Server Software By:
Icecast.org
Liquidsoap